Ridgedale, MO

8:35 AM CST on February 27, 2017 (GMT -0600)
Branson

Weather History for KBBG - January, 2013

Change the Weather History Date:

Tuesday, January 22, 2013

  Actual Average (KHRO) Record (KHRO)
Temperature  
Mean Temperature 24 °F -  
Max Temperature 32 °F 47 °F 76 °F (1909)
Min Temperature 17 °F 28 °F -14 °F (1930)
Degree Days  
Heating Degree Days 40    
Moisture  
Dew Point 15 °F    
Average Humidity 67    
Maximum Humidity 80    
Minimum Humidity 48    
Precipitation  
Precipitation 0.00 in - - ()
Sea Level Pressure  
Sea Level Pressure 30.29 in    
Wind  
Wind Speed 3 mph (ESE)    
Max Wind Speed 12 mph    
Max Gust Speed -    
Visibility 10 miles    
Events      
Averages and records for this station are not official NWS values.
T = Trace of Precipitation, MM = Missing Value Source: NWS Daily Summary

Daily Weather History Graph

Daily Weather History Graph

Search for Another Location

Airport or City:

Trip Planner

Search our weather history database for the weather conditions in past years. The results will help you decide how hot, cold, wet, or windy it might be!

Date:

Astronomy

Jan. 22, 2013 Rise Set
Actual Time 7:20 AM CST 5:28 PM CST
Civil Twilight 6:53 AM CST 5:56 PM CST
Nautical Twilight 6:21 AM CST 6:27 PM CST
Astronomical Twilight 5:51 AM CST 6:58 PM CST
Moon 1:53 PM CST (1/22) 3:41 AM CST (1/22)
Length of Visible Light 11h 02m
Length of Day
10h 07m
Waxing Gibbous, 83% of the Moon is Illuminated
Jan 22
Waxing Gibbous
Jan 26
Full
Feb 3
Last Quarter
Feb 10
New
Feb 17
First Quarter

Hourly Weather History & Observations

Time (CST) Temp. Windchill Dew Point Humidity Pressure Visibility Wind Dir Wind Speed Gust Speed Precip Events Conditions
12:15 AM 21.2 °F - 10.4 °F 63% 30.32 in 10.0 mi Calm Calm - N/A   Clear
1:35 AM 19.4 °F - 10.4 °F 68% 30.31 in 10.0 mi Calm Calm - N/A   Clear
1:55 AM 19.4 °F - 12.2 °F 74% 30.32 in 10.0 mi Calm Calm - N/A   Partly Cloudy
2:15 AM 19.4 °F - 12.2 °F 74% 30.32 in 10.0 mi Calm Calm - N/A   Partly Cloudy
2:35 AM 19.4 °F - 10.4 °F 68% 30.31 in 10.0 mi Calm Calm - N/A   Partly Cloudy
2:55 AM 19.4 °F - 12.2 °F 74% 30.31 in 10.0 mi Calm Calm - N/A   Partly Cloudy
3:15 AM 17.6 °F - 12.2 °F 79% 30.30 in 10.0 mi Calm Calm - N/A   Clear
3:35 AM 19.4 °F - 14.0 °F 80% 30.30 in 10.0 mi Calm Calm - N/A   Partly Cloudy
3:55 AM 19.4 °F - 14.0 °F 80% 30.30 in 10.0 mi Calm Calm - N/A   Scattered Clouds
4:15 AM 19.4 °F - 14.0 °F 80% 30.31 in 10.0 mi Calm Calm - N/A   Partly Cloudy
4:35 AM 19.4 °F - 14.0 °F 80% 30.30 in 10.0 mi Calm Calm - N/A   Partly Cloudy
4:55 AM 19.4 °F - 14.0 °F 80% 30.30 in 10.0 mi Calm Calm - N/A   Mostly Cloudy
5:15 AM 19.4 °F - 14.0 °F 80% 30.31 in 10.0 mi Calm Calm - N/A   Mostly Cloudy
5:35 AM 19.4 °F 14.3 °F 14.0 °F 80% 30.30 in 10.0 mi East 3.5 mph - N/A   Scattered Clouds
6:50 AM 19.4 °F 14.3 °F 10.4 °F 68% 30.32 in 10.0 mi East 3.5 mph - N/A   Partly Cloudy
7:46 AM 19.4 °F 9.5 °F 14.0 °F 80% 30.32 in 10.0 mi ESE 8.1 mph - N/A   Scattered Clouds
8:47 AM 23.0 °F 13.1 °F 14.0 °F 68% 30.34 in 10.0 mi ESE 9.2 mph - N/A   Scattered Clouds
9:46 AM 26.6 °F 17.5 °F 14.0 °F 59% 30.34 in 10.0 mi East 9.2 mph - N/A   Scattered Clouds
10:50 AM 30.2 °F 20.8 °F 14.0 °F 51% 30.34 in 10.0 mi East 11.5 mph - N/A   Scattered Clouds
11:51 AM 32.0 °F 24.2 °F 14.0 °F 48% 30.34 in 10.0 mi ESE 9.2 mph - N/A   Overcast
12:48 PM 32.0 °F 24.2 °F 14.0 °F 48% 30.31 in 10.0 mi ESE 9.2 mph - N/A   Overcast
1:47 PM 32.0 °F 24.8 °F 14.0 °F 48% 30.28 in 10.0 mi ESE 8.1 mph - N/A   Overcast
2:58 PM 32.0 °F 24.2 °F 15.8 °F 51% 30.27 in 10.0 mi ESE 9.2 mph - N/A   Overcast
3:55 PM 32.0 °F 25.6 °F 15.8 °F 51% 30.26 in 10.0 mi East 6.9 mph - N/A   Mostly Cloudy
4:48 PM 32.0 °F 26.4 °F 15.8 °F 51% 30.24 in 10.0 mi ESE 5.8 mph - N/A   Overcast
6:56 PM 28.4 °F 22.2 °F 15.8 °F 59% 30.24 in 10.0 mi ESE 5.8 mph - N/A   Clear
7:48 PM 28.4 °F 22.2 °F 17.6 °F 64% 30.24 in 10.0 mi East 5.8 mph - N/A   Clear
7:55 PM 28.4 °F 21.2 °F 17.6 °F 64% 30.23 in 10.0 mi ESE 6.9 mph - N/A   Clear
8:15 PM 28.4 °F 20.4 °F 17.6 °F 64% 30.24 in 10.0 mi ESE 8.1 mph - N/A   Clear
8:35 PM 28.4 °F 21.2 °F 17.6 °F 64% 30.24 in 10.0 mi SE 6.9 mph - N/A   Partly Cloudy
8:50 PM 28.4 °F 21.2 °F 15.8 °F 59% 30.24 in 10.0 mi SE 6.9 mph - N/A   Partly Cloudy
8:55 PM 28.4 °F 22.2 °F 17.6 °F 64% 30.25 in 10.0 mi ESE 5.8 mph - N/A   Partly Cloudy
9:15 PM 28.4 °F 23.3 °F 17.6 °F 64% 30.25 in 10.0 mi ESE 4.6 mph - N/A   Partly Cloudy
9:35 PM 26.6 °F 19.1 °F 17.6 °F 69% 30.25 in 10.0 mi SE 6.9 mph - N/A   Clear
9:55 PM 26.6 °F 20.0 °F 17.6 °F 69% 30.25 in 10.0 mi SE 5.8 mph - N/A   Partly Cloudy
10:15 PM 26.6 °F 19.1 °F 17.6 °F 69% 30.26 in 10.0 mi SE 6.9 mph - N/A   Partly Cloudy
10:55 PM 26.6 °F 20.0 °F 17.6 °F 69% 30.27 in 10.0 mi SE 5.8 mph - N/A   Partly Cloudy
11:15 PM 26.6 °F 21.2 °F 17.6 °F 69% 30.27 in 10.0 mi ESE 4.6 mph - N/A   Partly Cloudy
11:55 PM 26.6 °F 20.0 °F 17.6 °F 69% 30.26 in 10.0 mi SE 5.8 mph - N/A   Scattered Clouds